Date String (YYYY-MM-DD hh:mm:ss) UTC,Instrument flags,Ambient pressure (hPa),Sample flow (lpm),Bypass flow (lpm),Sample temperature (°C),Ambient temperature (°C),ASC tube jacket temperature (°C),LED temperature (°C),Box temperature (°C),Sample RH (%),Span deviation,Mass concentration (μg/m³),Mass concentration (μg/m³),Mass concentration (μg/m³)
DateTimeUTC,F1_M11,P_M11,Q1_M11,Q2_M11,T1_M11,T2_M11,T3_M11,T4_M11,T5_M11,U1_M11,ZSPAN_M11,X0_M11,X2_M11,X1_M11
2022-10-20 23:00:00,,0822.6,5.02,0.00,29.5,26.2,00.0,38.2,31.2,06.3,0000.0,0002.84,0001.28,0000.90
2022-10-20 23:01:00,,0822.6,4.99,0.00,29.4,26.5,00.0,38.2,31.1,06.4,0000.0,0002.74,0001.27,0000.90
2022-10-20 23:02:00,,0822.6,5.01,0.00,29.4,26.9,00.0,38.1,31.1,06.4,0000.0,0003.57,0001.28,0000.91
2022-10-20 23:03:00,,0822.6,5.01,0.00,29.4,27.2,00.0,38.1,31.1,06.5,0000.0,0003.62,0001.29,0000.91
2022-10-20 23:04:00,,0822.6,5.01,0.00,29.4,27.5,00.0,38.2,31.2,06.5,0000.0,0003.85,0001.28,0000.90
2022-10-20 23:05:00,,0822.6,5.03,0.00,29.4,27.7,00.0,38.2,31.3,06.5,0000.0,0005.41,0001.34,0000.91
2022-10-20 23:06:00,,0822.6,5.01,0.00,29.5,27.9,00.0,38.2,31.4,06.5,0000.0,0006.26,0001.41,0000.92
2022-10-20 23:07:00,,0822.6,5.02,0.00,29.5,28.1,00.0,38.2,31.4,06.5,0000.0,0006.22,0001.41,0000.92
2022-10-20 23:08:00,,0822.6,5.02,0.00,29.5,28.2,00.0,38.2,31.4,06.5,0000.0,0007.02,0001.43,0000.92
2022-10-20 23:09:00,,0822.6,4.98,0.00,29.6,28.4,00.0,38.2,31.5,06.6,0000.0,0007.25,0001.50,0000.92
2022-10-20 23:10:00,,0822.6,5.00,0.00,29.6,28.5,00.0,38.3,31.6,06.6,0000.0,0006.88,0001.51,0000.92
2022-10-20 23:11:00,,0822.6,5.03,0.00,29.7,28.6,00.0,38.3,31.7,06.7,0000.0,0006.88,0001.51,0000.92
2022-10-20 23:12:00,,0822.5,4.98,0.00,29.7,27.9,00.0,38.3,31.6,06.7,0000.0,0006.89,0001.52,0000.92
2022-10-20 23:13:00,,0822.6,5.00,0.00,29.6,26.5,00.0,38.3,31.4,06.7,0000.0,0006.03,0001.55,0000.93
2022-10-20 23:14:00,,0822.5,5.01,0.00,29.6,26.0,00.0,38.2,31.3,06.8,0000.0,0006.07,0001.60,0000.95
2022-10-20 23:15:00,,0822.5,4.97,0.00,29.5,26.3,00.0,38.2,31.2,06.8,0000.0,0006.12,0001.62,0000.96
2022-10-20 23:16:00,,0822.5,5.01,0.00,29.4,26.6,00.0,38.2,31.1,06.6,0000.0,0004.65,0001.57,0000.96
2022-10-20 23:17:00,,0822.6,4.99,0.00,29.4,26.9,00.0,38.2,31.1,06.7,0000.0,0003.58,0001.46,0000.96
2022-10-20 23:18:00,,0822.6,4.98,0.00,29.4,27.2,00.0,38.2,31.2,06.7,0000.0,0003.78,0001.43,0000.96
2022-10-20 23:19:00,,0822.6,4.98,0.00,29.4,27.5,00.0,38.2,31.3,06.7,0000.0,0003.12,0001.38,0000.96
2022-10-20 23:20:00,,0822.6,5.00,0.00,29.4,27.7,00.0,38.2,31.3,06.8,0000.0,0002.86,0001.35,0000.97
2022-10-20 23:21:00,,0822.6,5.00,0.00,29.5,27.9,00.0,38.2,31.4,06.8,0000.0,0003.02,0001.38,0000.96
2022-10-20 23:22:00,,0822.6,5.00,0.00,29.5,28.1,00.0,38.2,31.5,06.9,0000.0,0003.01,0001.38,0000.97
2022-10-20 23:23:00,,0822.6,5.01,0.00,29.5,28.2,00.0,38.2,31.5,06.9,0000.0,0003.80,0001.39,0000.98
2022-10-20 23:24:00,,0822.6,5.01,0.00,29.6,28.4,00.0,38.3,31.6,06.9,0000.0,0003.93,0001.40,0000.97
2022-10-20 23:25:00,,0822.6,5.00,0.00,29.6,28.5,00.0,38.3,31.6,06.9,0000.0,0003.90,0001.38,0000.98
2022-10-20 23:26:00,,0822.6,5.00,0.00,29.7,28.6,00.0,38.3,31.7,06.9,0000.0,0003.88,0001.38,0000.98
2022-10-20 23:27:00,,0822.6,4.99,0.00,29.7,28.4,00.0,38.4,31.7,07.0,0000.0,0003.74,0001.42,0000.99
2022-10-20 23:28:00,,0822.5,5.02,0.00,29.7,27.1,00.0,38.3,31.5,07.0,0000.0,0004.76,0001.45,0000.99
2022-10-20 23:29:00,,0822.6,5.00,0.00,29.6,26.0,00.0,38.3,31.3,07.0,0000.0,0004.76,0001.49,0001.01
2022-10-20 23:30:00,,0822.6,4.98,0.00,29.6,26.0,00.0,38.2,31.3,07.1,0000.0,0005.75,0001.53,0001.02
2022-10-20 23:31:00,,0822.6,5.00,0.00,29.5,26.3,00.0,38.2,31.2,07.1,0000.0,0007.05,0001.53,0001.02
2022-10-20 23:32:00,,0822.6,5.00,0.00,29.4,26.7,00.0,38.2,31.1,07.1,0000.0,0007.01,0001.51,0001.03
2022-10-20 23:33:00,,0822.5,5.01,0.00,29.4,27.0,00.0,38.2,31.2,07.1,0000.0,0007.00,0001.51,0001.04
2022-10-20 23:34:00,,0822.5,4.97,0.00,29.4,27.3,00.0,38.2,31.3,07.1,0000.0,0006.57,0001.51,0001.04
2022-10-20 23:35:00,,0822.5,5.00,0.00,29.4,27.6,00.0,38.2,31.3,07.0,0000.0,0007.52,0001.52,0001.05
2022-10-20 23:36:00,,0822.6,5.02,0.00,29.4,27.8,00.0,38.2,31.3,07.0,0000.0,0007.80,0001.49,0001.03
2022-10-20 23:37:00,,0822.6,5.01,0.00,29.5,27.9,00.0,38.2,31.4,06.9,0000.0,0008.15,0001.48,0001.03
2022-10-20 23:38:00,,0822.6,5.01,0.00,29.5,28.1,00.0,38.2,31.5,06.9,0000.0,0008.11,0001.43,0001.04
2022-10-20 23:39:00,,0822.5,4.97,0.00,29.5,28.2,00.0,38.3,31.5,07.0,0000.0,0007.72,0001.41,0001.04
2022-10-20 23:40:00,,0822.6,5.00,0.00,29.6,28.4,00.0,38.3,31.6,07.0,0000.0,0007.42,0001.41,0001.04
2022-10-20 23:41:00,,0822.5,4.99,0.00,29.6,28.5,00.0,38.3,31.6,07.0,0000.0,0006.98,0001.42,0001.04
2022-10-20 23:42:00,,0822.6,5.01,0.00,29.6,28.6,00.0,38.3,31.7,07.1,0000.0,0005.83,0001.43,0001.04
2022-10-20 23:43:00,,0822.6,4.99,0.00,29.7,28.7,00.0,38.4,31.7,07.0,0000.0,0005.61,0001.46,0001.04
2022-10-20 23:44:00,,0822.6,5.01,0.00,29.7,28.5,00.0,38.4,31.7,07.0,0000.0,0005.75,0001.50,0001.04
2022-10-20 23:45:00,,0822.6,4.98,0.00,29.7,27.2,00.0,38.3,31.6,07.0,0000.0,0005.95,0001.54,0001.05
2022-10-20 23:46:00,,0822.6,5.01,0.00,29.6,26.0,00.0,38.3,31.4,07.1,0000.0,0004.70,0001.54,0001.05
2022-10-20 23:47:00,,0822.6,5.01,0.00,29.6,26.0,00.0,38.2,31.3,07.1,0000.0,0004.32,0001.55,0001.06
2022-10-20 23:48:00,,0822.6,5.01,0.00,29.5,26.3,00.0,38.2,31.2,07.1,0000.0,0004.34,0001.61,0001.06
2022-10-20 23:49:00,,0822.6,5.04,0.00,29.4,26.6,00.0,38.2,31.2,07.1,0000.0,0004.42,0001.64,0001.07
2022-10-20 23:50:00,,0822.7,5.00,0.00,29.4,26.9,00.0,38.2,31.2,07.1,0000.0,0004.39,0001.65,0001.07
2022-10-20 23:51:00,,0822.6,5.01,0.00,29.4,27.2,00.0,38.2,31.2,07.2,0000.0,0004.57,0001.69,0001.07
2022-10-20 23:52:00,,0822.6,4.99,0.00,29.4,27.5,00.0,38.2,31.3,07.2,0000.0,0004.68,0001.71,0001.08
2022-10-20 23:53:00,,0822.7,4.98,0.00,29.4,27.7,00.0,38.2,31.4,07.2,0000.0,0005.61,0001.70,0001.07
2022-10-20 23:54:00,,0822.6,5.00,0.00,29.5,27.9,00.0,38.2,31.4,07.2,0000.0,0006.30,0001.68,0001.07
2022-10-20 23:55:00,,0822.7,5.01,0.00,29.5,28.1,00.0,38.2,31.5,07.2,0000.0,0006.08,0001.63,0001.07
2022-10-20 23:56:00,,0822.6,5.01,0.00,29.5,28.2,00.0,38.3,31.5,07.2,0000.0,0005.95,0001.63,0001.07
2022-10-20 23:57:00,,0822.6,5.00,0.00,29.5,28.3,00.0,38.3,31.6,07.2,0000.0,0005.96,0001.64,0001.07
2022-10-20 23:58:00,,0822.6,4.99,0.00,29.6,28.5,00.0,38.3,31.6,07.2,0000.0,0005.69,0001.62,0001.07
2022-10-20 23:59:00,,0822.6,5.00,0.00,29.6,28.5,00.0,38.3,31.6,07.2,0000.0,0005.26,0001.59,0001.08
